Regional Weather Roundup
Issued by NWS Upton, NY

Current Version | Previous Version | Text Only | Print | Product List | Glossary On
Versions: 1 2 3 4 5 6 7 8 9 10 11 12 13 14 15 16 17 18 19 20 21 22 23 24 25 26 27
000
ASUS41 KOKX 211308
RWROKX

REGIONAL WEATHER ROUNDUP
NATIONAL WEATHER SERVICE NEW YORK NY
800 AM EST TUE FEB 21 2017

NOTE: "FAIR" INDICATES FEW OR NO CLOUDS BELOW 12,000 FEET WITH NO
SIGNIFICANT WEATHER AND/OR OBSTRUCTIONS TO VISIBILITY.

NYZ071-072-176-178-NJZ106-104-211400-
NEW YORK CITY METRO AREA

CITY           SKY/WX    TMP DP  RH WIND       PRES   REMARKS
Central Park   MOSUNNY   36  19  50 NE3       30.41R
Wall St Helipt NOT AVBL
LaGuardia APRT CLOUDY    37  19  48 NE7       30.39R WCI  32
Kennedy INTL   CLOUDY    36  21  54 NE5       30.41R WCI  32
Breezy Point     N/A     34 N/A N/A NE5         N/A  WCI  30
Newark/Liberty CLOUDY    36  17  46 N5        30.40R WCI  32
Teterboro      CLOUDY    34  19  54 N5        30.40R WCI  30
$$

NYZ177-179-078>081-211400-
LONG ISLAND NEW YORK

CITY           SKY/WX    TMP DP  RH WIND       PRES   REMARKS
Jones Beach      N/A     36 N/A N/A NE7         N/A  WCI  30
Matinecock PT  NOT AVBL
Farmingdale    CLOUDY    34  22  61 N5        30.39R WCI  30
MacArthur/ISP  CLOUDY    35  23  61 NE3       30.37S
Shirley        CLOUDY    33  22  63 CALM      30.39R
Westhampton    MOSUNNY   33  22  63 NE5       30.39F WCI  29
Southampton    NOT AVBL
Bridgehampton  NOT AVBL
East Hampton     N/A     32  22  66 NE3       30.36F
Montauk          N/A     37  22  54 NE7       30.39S WCI  32
$$

NYZ052-065-067-211400-
HUDSON VALLEY

CITY           SKY/WX    TMP DP  RH WIND       PRES   REMARKS
White Plains   MOSUNNY   33  11  39 E3        30.37R
Newburgh       PTSUNNY   25  19  80 CALM      30.39R
Montgomery     CLOUDY    27  20  75 CALM      30.37R
Poughkeepsie   CLOUDY    24  19  81 CALM      30.39R
Albany         CLOUDY    25  17  72 CALM      30.37S
$$

NJZ001-105-106-008-010-013-015-019>022-104-211400-
NEW JERSEY

CITY           SKY/WX    TMP DP  RH WIND       PRES   REMARKS
Newark/Liberty CLOUDY    36  17  46 N5        30.40R WCI  32
Teterboro      CLOUDY    34  19  54 N5        30.40R WCI  30
Caldwell       CLOUDY    31  19  61 CALM      30.40R
Somerville     CLOUDY    27  19  72 CALM      30.38R
Linden         NOT AVBL
Sussex         CLOUDY    25  23  92 CALM      30.37R
Andover          N/A     25  20  81 CALM      30.36S
Trenton        CLOUDY    34  16  47 N5        30.38R WCI  30
Millville      CLOUDY    36  25  64 NE3       30.37R
Atlantic City  MOSUNNY   33  24  69 CALM      30.37S
Wrightstown    CLOUDY    33  23  68 CALM      30.36R
Toms River     CLOUDY    28  23  81 CALM      30.39R
Belmar         CLOUDY    37  28  70 NE3       30.39
$$

PAZ047>061-062-071-211400-
EASTERN PENNSYLVANIA

CITY           SKY/WX    TMP DP  RH WIND       PRES   REMARKS
Philadelphia   PTSUNNY   38  21  50 E7        30.39R WCI  33
Allentown      MOSUNNY   32  18  56 CALM      30.38R
Scranton       CLOUDY    35  12  38 VRB3      30.30S
$$

CTZ002-004>006-009-010-012-RIZ004-006-007-MAZ004-011-015-211400-
SOUTHERN NEW ENGLAND
 IN CT

CITY           SKY/WX    TMP DP  RH WIND       PRES   REMARKS
Bradley INTL   CLOUDY    26  15  63 N3        30.39S
Hartford       CLOUDY    27  17  66 CALM      30.40F
Danbury        MOSUNNY   25  18  74 SW3       30.39R
Wtrbury/Oxford SUNNY     30  10  43 E6        30.35R WCI  24
Bridgeport     MOSUNNY   34  15  46 NE6       30.39R WCI  29
Meriden        CLOUDY    31  14  49 N3        30.39F
New Haven      MOSUNNY   31  15  52 N5        30.39S WCI  26
Chester          N/A     30  14  51 NW3       30.37S
Groton         CLOUDY    32  16  51 NE7       30.38F WCI  26
Wilimantic     CLOUDY    24  18  77 CALM      30.39F

 IN RI

CITY           SKY/WX    TMP DP  RH WIND       PRES   REMARKS
Providence     MOSUNNY   33  14  45 N3        30.40R
Block Island   SUNNY     35  23  61 N7        30.39S WCI  29
Westerly       SUNNY     33  14  45 N3        30.39S
 IN MA

CITY           SKY/WX    TMP DP  RH WIND       PRES   REMARKS
Boston         MOSUNNY   33  17  51 NW7       30.41R WCI  27
Worcester      CLOUDY    32   8  36 NE5       30.34S WCI  27
Westfield      CLOUDY    21  17  84 CALM      30.38F
Provincetown   SUNNY     38  25  59 NE10      30.39R WCI  31
Nantucket      SUNNY     39  30  70 N9        30.37R WCI  33
$$

ANZ330-335-338-340-345-350-353-355-211400-
COASTAL MARINE OBSERVATIONS


STATION/POSITION TIME  SKY/WX   TEMP    WIND        PRES    VSBY  WAVE
                                AIR SEA DIR/SP/G                  HT/PER
                 (UTC)          (F)     (DEG/KT/KT) (MB)    (MI)  (FT/S)
NY HARB ENTRANCE 1150            38 42   70/ 14/ 16 1027.7          2/ 4
20 S FIRE ISLAND 1150            39 42   60/ 12/ 14 1028.0          3/ 5
GREAT SOUTH BAY  NOT AVBL
23 SSW MONTAUK P 1150            38 45              1029.4          3/ 4
15 E BARNEGAT LI 1230               44                N/A           2/ 4
HUDSON CANYON    1150               49              1028.3          4/ 6
KINGS POINT      1230            33 38              1029.2
EXECUTION ROCKS  NOT AVBL
CENTRAL LI SOUND 1230            34      40/  6/  8   N/A           1
EASTERN LI SOUND NOT AVBL
ROBBINS REEF     1230            36      60/  7/  7 1029.3
$$


>>>>>>>>>>>>>>>>>>>>>>>>>>>> KEY <<<<<<<<<<<<<<<<<<<<<<<<<<<
>                                                          <
>     SKY/WX - Sky Condition/Present Weather               <
>     TMP    - Temperature in Fahrenheit                   <
>     DP     - Dew Point in Fahrenheit                     <
>     RH     - Relative Humidity in Percent                <
>     WIND   - Direction (from) and Speed in MPH           <
>     PRES   - Mean Sea Level Pressure (inches of Hg)      <
>     WCI    - Wind Chill Index                            <
>     VSB    - VISIBILITY IN MILES                         <
>     HX     - HEAT INDEX                                  <
>     TC     - TEMPERATURE IN CELSIUS                      <
>     VRB    - VARIABLE WIND DIRECTION                     <
>                                                          <
>>>>>>>>>>>>>>>>>>>>>>>>>>>> KEY <<<<<<<<<<<<<<<<<<<<<<<<<<<




USA.gov is the U.S. government's official web portal to all federal, state and local government web resources and services.